• In Netherlands
  • List of Countries
  • For 7 days
  • Water Temperature
  • Satellite Maps
  • Weather Map
  • Weather Widgets
  • user-avatar
    Login

    Hourly Weather Sliven

    Today, 25 March, Saturday

    Time Temperature Precipitation Wind Pressure Humidity
    00:00 +8°C° 0 mm 1 mps 735 mmHg 79%
    01:00 +7°C° 0 mm 0 mps 735 mmHg 80%
    02:00 +7°C° 0 mm 0 mps 735 mmHg 80%
    03:00 +7°C° 0 mm 0 mps 735 mmHg 80%
    04:00 +7°C° 0 mm 1 mps 735 mmHg 80%
    05:00 +7°C° 0 mm 1 mps 735 mmHg 79%
    06:00 +9°C° 0 mm 1 mps 735 mmHg 76%
    07:00 +11°C° 0 mm 1 mps 736 mmHg 72%
    08:00 +12°C° 0 mm 1 mps 736 mmHg 68%
    09:00 +14°C° 0 mm 1 mps 736 mmHg 65%
    10:00 +15°C° 0 mm 2 mps 736 mmHg 62%
    11:00 +16°C° 0 mm 2 mps 736 mmHg 59%
    12:00 +16°C° 0 mm 3 mps 736 mmHg 60%
    13:00 +17°C° 0 mm 3 mps 736 mmHg 61%
    14:00 +17°C° 0 mm 3 mps 735 mmHg 62%
    15:00 +16°C° 0.1 mm 3 mps 735 mmHg 67%
    16:00 +14°C° 0.1 mm 3 mps 735 mmHg 72%
    17:00 +12°C° 0.1 mm 3 mps 735 mmHg 76%
    18:00 +11°C° 0 mm 3 mps 734 mmHg 81%
    19:00 +10°C° 0 mm 2 mps 734 mmHg 86%
    20:00 +9°C° 0 mm 1 mps 734 mmHg 91%
    21:00 +9°C° 0 mm 1 mps 734 mmHg 92%
    22:00 +8°C° 0 mm 1 mps 734 mmHg 93%
    23:00 +8°C° 0 mm 1 mps 733 mmHg 94%

    Tomorrow, 26 March, Sunday

    Time Temperature Precipitation Wind Pressure Humidity
    00:00 +8°C° 0 mm 1 mps 733 mmHg 94%
    01:00 +7°C° 0 mm 1 mps 733 mmHg 94%
    02:00 +7°C° 0 mm 1 mps 732 mmHg 95%
    03:00 +7°C° 0 mm 1 mps 732 mmHg 95%
    04:00 +7°C° 0 mm 1 mps 731 mmHg 95%
    05:00 +7°C° 0 mm 1 mps 730 mmHg 95%
    06:00 +8°C° 0 mm 1 mps 730 mmHg 91%
    07:00 +8°C° 0 mm 2 mps 730 mmHg 87%
    08:00 +10°C° 0 mm 2 mps 730 mmHg 83%
    09:00 +12°C° 0 mm 2 mps 730 mmHg 76%
    10:00 +13°C° 0 mm 3 mps 730 mmHg 70%
    11:00 +14°C° 0 mm 3 mps 730 mmHg 63%
    12:00 +14°C° 0.2 mm 4 mps 730 mmHg 61%
    13:00 +15°C° 0.2 mm 4 mps 730 mmHg 58%
    14:00 +15°C° 0.2 mm 5 mps 729 mmHg 55%
    15:00 +15°C° 0.1 mm 4 mps 729 mmHg 56%
    16:00 +14°C° 0.1 mm 4 mps 729 mmHg 57%
    17:00 +14°C° 0.1 mm 4 mps 729 mmHg 58%
    18:00 +12°C° 0 mm 4 mps 729 mmHg 63%
    19:00 +10°C° 0 mm 3 mps 730 mmHg 69%
    20:00 +9°C° 0 mm 3 mps 730 mmHg 75%
    21:00 +8°C° 0.2 mm 3 mps 731 mmHg 79%
    22:00 +7°C° 0.2 mm 3 mps 731 mmHg 83%
    23:00 +7°C° 0.2 mm 3 mps 732 mmHg 87%

    Day after tomorrow, 27 March, Monday

    Time Temperature Precipitation Wind Pressure Humidity
    00:00 +5°C° 0.9 mm 4 mps 732 mmHg 87%
    01:00 +5°C° 0.9 mm 4 mps 733 mmHg 88%
    02:00 +4°C° 0.9 mm 4 mps 733 mmHg 89%
    03:00 +4°C° 0.5 mm 4 mps 733 mmHg 89%
    04:00 +4°C° 0.5 mm 4 mps 734 mmHg 88%
    05:00 +4°C° 0.5 mm 4 mps 734 mmHg 88%
    06:00 +3°C° 0.1 mm 4 mps 734 mmHg 86%
    07:00 +3°C° 0.1 mm 4 mps 735 mmHg 85%
    08:00 +3°C° 0.1 mm 4 mps 736 mmHg 83%
    09:00 +4°C° 0 mm 4 mps 736 mmHg 80%
    10:00 +5°C° 0 mm 4 mps 736 mmHg 77%
    11:00 +5°C° 0 mm 4 mps 737 mmHg 73%
    12:00 +6°C° 0 mm 4 mps 737 mmHg 71%
    13:00 +6°C° 0 mm 4 mps 737 mmHg 68%
    14:00 +7°C° 0 mm 4 mps 737 mmHg 66%
    15:00 +7°C° 0 mm 4 mps 737 mmHg 65%
    16:00 +8°C° 0 mm 3 mps 737 mmHg 64%
    17:00 +8°C° 0 mm 3 mps 736 mmHg 63%
    18:00 +5°C° 0 mm 3 mps 737 mmHg 69%
    19:00 +5°C° 0 mm 2 mps 737 mmHg 74%
    20:00 +4°C° 0 mm 1 mps 737 mmHg 80%
    21:00 +4°C° 0 mm 1 mps 737 mmHg 80%
    22:00 +3°C° 0 mm 1 mps 738 mmHg 80%
    23:00 +3°C° 0 mm 1 mps 738 mmHg 79%

    28 March, Tuesday

    Time Temperature Precipitation Wind Pressure Humidity
    00:00 +3°C° 0 mm 1 mps 738 mmHg 78%
    01:00 +3°C° 0 mm 1 mps 738 mmHg 77%
    02:00 +3°C° 0 mm 1 mps 738 mmHg 75%
    03:00 +3°C° 0 mm 1 mps 738 mmHg 74%
    04:00 +3°C° 0 mm 1 mps 738 mmHg 74%
    05:00 +3°C° 0 mm 1 mps 738 mmHg 73%
    06:00 +3°C° 0 mm 2 mps 738 mmHg 70%
    07:00 +4°C° 0 mm 2 mps 739 mmHg 68%
    08:00 +6°C° 0 mm 2 mps 739 mmHg 65%
    09:00 +7°C° 0 mm 2 mps 739 mmHg 61%
    10:00 +9°C° 0 mm 2 mps 739 mmHg 58%
    11:00 +10°C° 0 mm 2 mps 739 mmHg 55%
    12:00 +12°C° 0 mm 2 mps 739 mmHg 53%
    13:00 +12°C° 0 mm 3 mps 738 mmHg 51%
    14:00 +12°C° 0 mm 3 mps 738 mmHg 49%
    15:00 +12°C° 0 mm 3 mps 738 mmHg 51%
    16:00 +12°C° 0 mm 3 mps 738 mmHg 53%
    17:00 +12°C° 0 mm 3 mps 737 mmHg 55%
    18:00 +10°C° 0 mm 2 mps 737 mmHg 62%
    19:00 +8°C° 0 mm 2 mps 738 mmHg 70%
    20:00 +6°C° 0 mm 2 mps 738 mmHg 77%
    21:00 +6°C° 0 mm 1 mps 738 mmHg 79%
    22:00 +5°C° 0 mm 1 mps 738 mmHg 81%
    23:00 +4°C° 0 mm 1 mps 738 mmHg 83%

    29 March, Wednesday

    Time Temperature Precipitation Wind Pressure Humidity
    00:00 +4°C° 0 mm 1 mps 738 mmHg 83%
    01:00 +4°C° 0 mm 1 mps 738 mmHg 83%
    02:00 +4°C° 0 mm 1 mps 738 mmHg 83%
    03:00 +4°C° 0 mm 1 mps 738 mmHg 83%
    04:00 +4°C° 0 mm 1 mps 738 mmHg 82%
    05:00 +4°C° 0 mm 1 mps 738 mmHg 81%
    06:00 +6°C° 0 mm 1 mps 738 mmHg 75%
    07:00 +8°C° 0 mm 1 mps 738 mmHg 69%
    08:00 +9°C° 0 mm 1 mps 739 mmHg 64%
    09:00 +10°C° 0 mm 2 mps 739 mmHg 58%
    10:00 +13°C° 0 mm 2 mps 739 mmHg 53%
    11:00 +15°C° 0 mm 2 mps 739 mmHg 47%
    12:00 +16°C° 0 mm 2 mps 739 mmHg 46%
    13:00 +17°C° 0 mm 2 mps 738 mmHg 45%
    14:00 +17°C° 0 mm 2 mps 738 mmHg 44%
    15:00 +17°C° 0 mm 2 mps 737 mmHg 47%
    16:00 +17°C° 0 mm 2 mps 737 mmHg 51%
    17:00 +16°C° 0 mm 2 mps 737 mmHg 54%
    18:00 +14°C° 0 mm 2 mps 737 mmHg 62%
    19:00 +11°C° 0 mm 1 mps 737 mmHg 71%
    20:00 +9°C° 0 mm 1 mps 736 mmHg 80%
    21:00 +8°C° 0 mm 1 mps 736 mmHg 82%
    22:00 +7°C° 0 mm 0 mps 736 mmHg 83%
    23:00 +6°C° 0 mm 0 mps 736 mmHg 84%

    30 March, Thursday

    Time Temperature Precipitation Wind Pressure Humidity
    00:00 +6°C° 0 mm 0 mps 736 mmHg 85%
    01:00 +5°C° 0 mm 0 mps 736 mmHg 85%
    02:00 +5°C° 0 mm 0 mps 736 mmHg 85%
    03:00 +5°C° 0 mm 0 mps 735 mmHg 85%
    04:00 +5°C° 0 mm 0 mps 735 mmHg 85%
    05:00 +6°C° 0 mm 1 mps 735 mmHg 85%
    06:00 +8°C° 0 mm 1 mps 736 mmHg 78%
    07:00 +10°C° 0 mm 1 mps 736 mmHg 71%
    08:00 +12°C° 0 mm 1 mps 736 mmHg 64%
    09:00 +14°C° 0 mm 2 mps 737 mmHg 58%
    10:00 +15°C° 0 mm 2 mps 737 mmHg 52%
    11:00 +17°C° 0 mm 3 mps 737 mmHg 46%
    12:00 +18°C° 0 mm 3 mps 737 mmHg 45%
    13:00 +18°C° 0 mm 3 mps 736 mmHg 44%
    14:00 +19°C° 0 mm 4 mps 736 mmHg 42%
    15:00 +18°C° 0 mm 3 mps 736 mmHg 46%
    16:00 +18°C° 0 mm 3 mps 736 mmHg 50%
    17:00 +18°C° 0 mm 3 mps 736 mmHg 53%
    18:00 +14°C° 0 mm 3 mps 736 mmHg 61%
    19:00 +13°C° 0 mm 2 mps 737 mmHg 70%
    20:00 +9°C° 0 mm 2 mps 737 mmHg 78%
    21:00 +9°C° 0 mm 2 mps 737 mmHg 79%
    22:00 +8°C° 0 mm 2 mps 738 mmHg 81%
    23:00 +9°C° 0 mm 1 mps 738 mmHg 82%
    Show more